Princeton, MN

8:31 PM CST on November 15, 2019 (GMT -0600)
Princeton Municipal

Weather History for KPNM - September, 2019

Change the Weather History Date:

Sunday, September 15, 2019

  Actual Average Record
Temperature  
Mean Temperature 66 °F -  
Max Temperature 80 °F 70 °F 91 °F (2018)
Min Temperature 53 °F 47 °F 26 °F (2007)
Cooling Degree Days 2    
Growing Degree Days 16 (Base 50)    
Moisture  
Dew Point 61 °F    
Average Humidity 90    
Maximum Humidity 100    
Minimum Humidity 58    
Precipitation  
Precipitation 0.00 in - - ()
Sea Level Pressure  
Sea Level Pressure 29.98 in    
Wind  
Wind Speed 1 mph (SSE)    
Max Wind Speed 8 mph    
Max Gust Speed -    
Visibility 5 miles    
Events Fog    
Averages and records for this station are not official NWS values.
T = Trace of Precipitation, MM = Missing Value Source: NWS Daily Summary

Daily Weather History Graph

Daily Weather History Graph

Search for Another Location

Airport or City:

Astronomy

Sep. 15, 2019 Rise Set
Actual Time 6:52 AM CDT 7:25 PM CDT
Civil Twilight 6:22 AM CDT 7:55 PM CDT
Nautical Twilight 5:47 AM CDT 8:30 PM CDT
Astronomical Twilight 5:10 AM CDT 9:07 PM CDT
Moon 8:31 PM CDT (9/15) 8:04 AM CDT (9/15)
Length of Visible Light 13h 32m
Length of Day
12h 33m
Full, 98% of the Moon is Illuminated
Sep 15
Full
Sep 21
Last Quarter
Sep 28
New
Oct 5
First Quarter
Oct 13
Full

Hourly Weather History & Observations

Time (CDT) Temp. Heat Index Dew Point Humidity Pressure Visibility Wind Dir Wind Speed Gust Speed Precip Events Conditions
12:17 AM 60.8 °F - 59.0 °F 94% 29.96 in 7.0 mi Calm Calm - N/A   Clear
12:35 AM 59.0 °F - 57.2 °F 94% 29.96 in 2.5 mi Calm Calm - N/A   Clear
12:55 AM 57.2 °F - 57.2 °F 100% 29.95 in 0.2 mi Calm Calm - N/A Fog Fog
1:15 AM 57.2 °F - 55.4 °F 94% 29.96 in 0.5 mi Calm Calm - N/A Fog Fog
1:20 AM 57.2 °F - 55.4 °F 94% 29.96 in 0.5 mi Calm Calm - N/A Fog Fog
1:38 AM 57.2 °F - 55.4 °F 94% 29.95 in 0.5 mi Calm Calm - N/A Fog Fog
1:56 AM 57.2 °F - 57.2 °F 100% 29.95 in 4.0 mi Calm Calm - N/A   Scattered Clouds
2:15 AM 55.4 °F - 55.4 °F 100% 29.95 in 0.2 mi Calm Calm - N/A Fog Fog
2:16 AM 55.4 °F - 55.4 °F 100% 29.95 in 0.2 mi Calm Calm - N/A Fog Fog
2:35 AM 55.4 °F - 53.6 °F 94% 29.95 in 0.8 mi Calm Calm - N/A   Overcast
2:36 AM 55.4 °F - 55.4 °F 100% 29.95 in 1.0 mi Calm Calm - N/A   Overcast
2:59 AM 55.4 °F - 53.6 °F 94% 29.95 in 0.5 mi Calm Calm - N/A Fog Fog
3:17 AM 55.4 °F - 53.6 °F 94% 29.94 in 0.2 mi Calm Calm - N/A Fog Fog
3:35 AM 53.6 °F - 53.6 °F 100% 29.94 in 0.5 mi Calm Calm - N/A Fog Fog
3:36 AM 53.6 °F - 53.6 °F 100% 29.94 in 0.5 mi Calm Calm - N/A Fog Fog
3:55 AM 53.6 °F - 53.6 °F 100% 29.95 in 0.5 mi Calm Calm - N/A Fog Fog
4:15 AM 53.6 °F - 53.6 °F 100% 29.94 in 0.5 mi Calm Calm - N/A Fog Fog
4:38 AM 53.6 °F - 53.6 °F 100% 29.94 in 0.5 mi Calm Calm - N/A Fog Fog
4:56 AM 53.6 °F - 53.6 °F 100% 29.95 in 0.2 mi Calm Calm - N/A Fog Fog
5:15 AM 53.6 °F - 53.6 °F 100% 29.95 in 0.2 mi Calm Calm - N/A Fog Fog
5:16 AM 55.4 °F - 53.6 °F 94% 29.95 in 0.2 mi Calm Calm - N/A Fog Fog
5:35 AM 55.4 °F - 55.4 °F 100% 29.95 in 0.5 mi Calm Calm - N/A Fog Fog
5:59 AM 55.4 °F - 55.4 °F 100% 29.95 in 0.2 mi Calm Calm - N/A Fog Fog
6:17 AM 57.2 °F - 55.4 °F 94% 29.95 in 0.2 mi Calm Calm - N/A Fog Fog
6:35 AM 57.2 °F - 55.4 °F 94% 29.95 in 0.2 mi Calm Calm - N/A Fog Fog
6:55 AM 57.2 °F - 57.2 °F 100% 29.96 in 0.2 mi Calm Calm - N/A Fog Fog
6:56 AM 57.2 °F - 57.2 °F 100% 29.96 in 0.2 mi Calm Calm - N/A Fog Fog
7:15 AM 57.2 °F - 57.2 °F 100% 29.97 in 0.2 mi Calm Calm - N/A Fog Fog
7:20 AM 57.2 °F - 57.2 °F 100% 29.97 in 0.2 mi Calm Calm - N/A Fog Fog
7:38 AM 59.0 °F - 57.2 °F 94% 29.97 in 0.2 mi Calm Calm - N/A Fog Fog
7:56 AM 59.0 °F - 57.2 °F 94% 29.98 in 0.2 mi Calm Calm - N/A Fog Fog
8:15 AM 59.0 °F - 59.0 °F 100% 29.98 in 0.2 mi Calm Calm - N/A Fog Fog
8:16 AM 59.0 °F - 59.0 °F 100% 29.98 in 0.2 mi Calm Calm - N/A Fog Fog
8:35 AM 60.8 °F - 60.8 °F 100% 29.98 in 0.2 mi Calm Calm - N/A Fog Fog
8:36 AM 60.8 °F - 60.8 °F 100% 29.98 in 0.2 mi Calm Calm - N/A Fog Fog
8:59 AM 62.6 °F - 60.8 °F 94% 29.98 in 0.2 mi Calm Calm - N/A Fog Fog
9:17 AM 62.6 °F - 60.8 °F 94% 29.99 in 0.2 mi Calm Calm - N/A Fog Fog
9:35 AM 62.6 °F - 60.8 °F 94% 29.99 in 0.5 mi Calm Calm - N/A Fog Fog
9:55 AM 62.6 °F - 60.8 °F 94% 30.00 in 0.5 mi Calm Calm - N/A Fog Fog
10:15 AM 62.6 °F - 62.6 °F 100% 30.00 in 0.8 mi Calm Calm - N/A   Overcast
10:20 AM 62.6 °F - 62.6 °F 100% 30.00 in 1.0 mi Calm Calm - N/A   Overcast
10:38 AM 64.4 °F - 62.6 °F 94% 30.00 in 0.8 mi Calm Calm - N/A   Overcast
10:56 AM 64.4 °F - 62.6 °F 94% 30.01 in 1.2 mi Calm Calm - N/A   Overcast
11:15 AM 64.4 °F - 62.6 °F 94% 30.01 in 3.0 mi Calm Calm - N/A   Overcast
11:16 AM 64.4 °F - 64.4 °F 100% 30.01 in 4.0 mi Calm Calm - N/A   Overcast
11:35 AM 64.4 °F - 64.4 °F 100% 30.01 in 2.5 mi Calm Calm - N/A   Overcast
11:59 AM 64.4 °F - 64.4 °F 100% 30.01 in 7.0 mi ENE 3.5 mph - N/A   Overcast
12:35 PM 66.2 °F - 66.2 °F 100% 30.01 in 10.0 mi Calm Calm - N/A   Overcast
12:55 PM 69.8 °F - 66.2 °F 88% 30.01 in 10.0 mi Calm Calm - N/A   Overcast
1:15 PM 69.8 °F - 66.2 °F 88% 30.01 in 10.0 mi SE 4.6 mph - N/A   Overcast
1:19 PM 71.6 °F - 66.2 °F 83% 30.02 in 10.0 mi Calm Calm - N/A   Overcast
1:38 PM 71.6 °F - 66.2 °F 83% 30.01 in 10.0 mi SE 4.6 mph - N/A   Mostly Cloudy
1:56 PM 73.4 °F - 66.2 °F 78% 30.01 in 10.0 mi East 3.5 mph - N/A   Scattered Clouds
2:15 PM 73.4 °F - 66.2 °F 78% 30.00 in 10.0 mi Calm Calm - N/A   Clear
2:35 PM 75.2 °F - 66.2 °F 73% 29.99 in 10.0 mi South 3.5 mph - N/A   Clear
2:59 PM 77.0 °F - 66.2 °F 69% 29.98 in 10.0 mi Calm Calm - N/A   Clear
3:17 PM 78.8 °F - 66.2 °F 65% 29.98 in 10.0 mi South 4.6 mph - N/A   Clear
3:35 PM 78.8 °F - 68.0 °F 69% 29.98 in 10.0 mi SSE 5.8 mph - N/A   Clear
3:55 PM 78.8 °F - 66.2 °F 65% 29.98 in 10.0 mi SSE 3.5 mph - N/A   Clear
3:56 PM 78.8 °F - 66.2 °F 65% 29.98 in 10.0 mi SSE 3.5 mph - N/A   Clear
4:15 PM 80.6 °F 82.3 °F 64.4 °F 58% 29.97 in 10.0 mi SSE 8.1 mph - N/A   Clear
4:38 PM 80.6 °F 82.7 °F 66.2 °F 61% 29.97 in 10.0 mi South 5.8 mph - N/A   Clear
4:56 PM 80.6 °F 82.7 °F 66.2 °F 61% 29.97 in 10.0 mi South 4.6 mph - N/A   Clear
5:15 PM 80.6 °F 83.2 °F 68.0 °F 65% 29.97 in 10.0 mi SSE 5.8 mph - N/A   Scattered Clouds
5:16 PM 80.6 °F 83.2 °F 68.0 °F 65% 29.97 in 10.0 mi SSE 5.8 mph - N/A   Scattered Clouds
5:35 PM 80.6 °F 82.7 °F 66.2 °F 61% 29.97 in 10.0 mi South 5.8 mph - N/A   Scattered Clouds
5:59 PM 80.6 °F 82.7 °F 66.2 °F 61% 29.97 in 10.0 mi South 4.6 mph - N/A   Clear
6:17 PM 78.8 °F - 66.2 °F 65% 29.98 in 10.0 mi South 4.6 mph - N/A   Clear
6:35 PM 78.8 °F - 66.2 °F 65% 29.98 in 10.0 mi Calm Calm - N/A   Clear
6:36 PM 78.8 °F - 66.2 °F 65% 29.98 in 10.0 mi Calm Calm - N/A   Clear
6:55 PM 77.0 °F - 68.0 °F 74% 29.98 in 10.0 mi Calm Calm - N/A   Clear
7:15 PM 73.4 °F - 68.0 °F 83% 29.98 in 10.0 mi Calm Calm - N/A   Clear
7:37 PM 71.6 °F - 66.2 °F 83% 29.98 in 10.0 mi Calm Calm - N/A   Clear
7:56 PM 69.8 °F - 66.2 °F 88% 29.98 in 10.0 mi Calm Calm - N/A   Clear
8:15 PM 68.0 °F - 66.2 °F 94% 29.98 in 10.0 mi Calm Calm - N/A   Clear
8:35 PM 66.2 °F - 66.2 °F 100% 29.98 in 10.0 mi Calm Calm - N/A   Clear
8:36 PM 66.2 °F - 66.2 °F 100% 29.98 in 10.0 mi Calm Calm - N/A   Clear
8:59 PM 66.2 °F - 66.2 °F 100% 29.99 in 10.0 mi Calm Calm - N/A   Clear
9:17 PM 66.2 °F - 64.4 °F 94% 29.99 in 10.0 mi Calm Calm - N/A   Clear
9:35 PM 64.4 °F - 64.4 °F 100% 29.99 in 10.0 mi Calm Calm - N/A   Clear
9:55 PM 64.4 °F - 62.6 °F 94% 29.99 in 10.0 mi Calm Calm - N/A   Clear
9:56 PM 64.4 °F - 62.6 °F 94% 29.99 in 10.0 mi Calm Calm - N/A   Clear
10:15 PM 64.4 °F - 62.6 °F 94% 29.99 in 1.0 mi Calm Calm - N/A   Clear
10:20 PM 64.4 °F - 62.6 °F 94% 29.99 in 0.5 mi Calm Calm - N/A Fog Fog
10:38 PM 62.6 °F - 62.6 °F 100% 30.00 in 4.0 mi Calm Calm - N/A   Clear
10:56 PM 62.6 °F - 62.6 °F 100% 30.00 in 7.0 mi Calm Calm - N/A   Clear
11:15 PM 62.6 °F - 60.8 °F 94% 30.00 in 3.0 mi Calm Calm - N/A   Clear
11:35 PM 62.6 °F - 60.8 °F 94% 30.00 in 1.8 mi Calm Calm - N/A   Clear
11:36 PM 62.6 °F - 60.8 °F 94% 30.00 in 1.2 mi Calm Calm - N/A   Clear
11:59 PM 62.6 °F - 60.8 °F 94% 30.00 in 0.5 mi Calm Calm - N/A Fog Fog